Location: Bílinka
(49.3579°N, 14.3767°E)
Time: 17:15:01
(UTC+00:00)

Cosmos 540 Rocket - Visible Passes

Search period start: 02 October 2023 00:00
Search period end: 12 October 2023 00:00
Orbit: 739 x 751 km, 74.1° (Epoch: 02 October)

Date Brightness Start Highest point End Pass type
(mag) Time Alt. Az. Time Alt. Az. Time Alt. Az.
02 Oct 5.4 17:47:38 10° NNE 17:49:44 12° NE 17:51:33 11° ENE visible
02 Oct 4.1 19:27:28 10° NNW 19:31:20 45° NNE 19:31:20 45° NNE visible
02 Oct 6.0 21:09:43 10° NW 21:11:07 16° WNW 21:11:07 16° WNW visible
03 Oct 4.3 18:43:46 10° N 18:48:17 32° NE 18:48:17 32° NE visible
03 Oct 5.2 20:25:15 10° NW 20:28:05 29° WNW 20:28:05 29° WNW visible
04 Oct 4.9 18:00:17 10° N 18:04:04 20° NE 18:05:17 19° ENE visible
04 Oct 4.1 19:41:07 10° NNW 19:45:04 53° NW 19:45:04 53° NW visible
05 Oct 5.4 17:17:14 10° NNE 17:19:34 13° NE 17:21:55 10° ENE visible
05 Oct 3.5 18:57:13 10° NNW 19:02:05 59° NE 19:02:05 59° NE visible
05 Oct 5.8 20:39:35 10° NW 20:41:53 19° WNW 20:41:53 19° WNW visible
06 Oct 4.1 18:13:29 10° N 18:18:10 34° NE 18:19:10 32° E visible
06 Oct 4.7 19:55:03 10° NW 19:58:58 37° W 19:58:58 37° W visible
07 Oct 4.8 17:29:58 10° N 17:33:52 21° NE 17:36:17 16° E visible
07 Oct 3.5 19:10:53 10° NNW 19:16:00 73° WSW 19:16:05 73° WSW visible
07 Oct 6.3 20:55:36 10° W 20:55:53 10° W 20:55:53 10° W visible
08 Oct 3.4 18:26:57 10° NNW 18:32:03 63° ENE 18:33:16 48° ESE visible
08 Oct 5.6 20:09:26 10° NW 20:13:04 20° W 20:13:04 20° W visible
09 Oct 4.1 17:43:12 10° N 17:47:57 36° ENE 17:50:32 22° ESE visible
09 Oct 4.6 19:24:50 10° NW 19:29:31 37° WSW 19:30:21 34° SW visible
10 Oct 4.7 16:59:39 10° N 17:03:40 22° NE 17:07:40 10° E visible
10 Oct 3.6 18:40:38 10° NNW 18:45:44 68° WSW 18:47:42 37° S visible
11 Oct 3.4 17:56:41 10° NNW 18:01:48 67° ENE 18:05:11 21° SE visible
11 Oct 5.8 19:39:17 10° NW 19:42:50 19° W 19:45:01 15° SW visible
